Flag for U.S.A. Weather past 2 weeks in Paramus, New Jersey, U.S.A.

Now
68 °F

Clear.


Feels Like: 68 °F
Forecast: 61 / 85 °F
Wind: 6 mph from South

Location: Teterboro Airport

Current Time: May 25, 2015 at 12:18:27 AM

Latest Report: May 24, 2015 at 11:51 PM


Visibility: 10 mi

Pressure: 30.24 "Hg

Humidity: 51%

Dew point: 49 °F

Location of ParamusLocation

Historic Weather in Paramus — Graph

°F

Paramus temperature yesterday

Maximum temperature yesterday: 83 °F (at 2:51 PM)
Minimum temperature yesterday: 50 °F (at 4:51 AM)
Average temperature yesterday: 67 °F

Past Weeks' High & Low Weather Summary

 TemperatureHumidityPressure
High85 °F (May 12, 1:51 PM)100% (May 10, 4:58 AM)30.41 "Hg (May 10, 4:58 AM)
Low47 °F (May 23, 5:51 AM)17% (May 14, 3:51 PM)29.73 "Hg (May 12, 5:51 PM)
Average66 °F57%30.09 "Hg
* Reported May 9 10:51 PM — May 24 10:51 PM, Paramus, Weather by CustomWeather, © 2015

Note: Actual official high and low records may vary slightly from our data, if they occured in-between our weather recording intervals... More about our weather records

Advertising

Paramus weather history for previous 24 hours

 ConditionsComfort  
Time TempWeatherWind HumidityBarometerVisibility
10:51 PM
Sun, May 24
70 °FClear.9 mph51%30.24 "Hg10 mi
9:51 PM71 °FClear.5 mph47%30.24 "Hg10 mi
8:51 PM72 °FSunny.3 mph46%30.22 "Hg10 mi
7:51 PM75 °FSunny.6 mph37%30.21 "Hg10 mi
6:51 PM77 °FSunny.10 mph33%30.21 "Hg10 mi
5:51 PM79 °FSunny.9 mph27%30.20 "Hg10 mi
4:51 PM80 °FSunny.7 mph20%30.21 "Hg10 mi
3:51 PM81 °FSunny.No wind21%30.22 "Hg10 mi
2:51 PM83 °FPassing clouds.9 mph19%30.25 "Hg10 mi
1:51 PM79 °FSunny.12 mph25%30.26 "Hg10 mi
12:51 PM77 °FSunny.6 mph26%30.29 "Hg10 mi
11:51 AM77 °FSunny.8 mph26%30.31 "Hg10 mi
10:51 AM74 °FSunny.12 mph31%30.32 "Hg10 mi
9:51 AM71 °FSunny.10 mph35%30.34 "Hg10 mi
8:51 AM64 °FSunny.7 mph41%30.36 "Hg10 mi
7:51 AM57 °FSunny.6 mph58%30.35 "Hg10 mi
6:51 AM52 °FSunny.5 mph64%30.35 "Hg10 mi
5:51 AM50 °FClear.No wind63%30.34 "Hg10 mi
4:51 AM50 °FClear.3 mph63%30.34 "Hg10 mi
3:51 AM51 °FClear.No wind63%30.34 "Hg10 mi
2:51 AM51 °FClear.3 mph66%30.34 "Hg10 mi
1:51 AM52 °FClear.3 mph66%30.34 "Hg10 mi
12:51 AM55 °FClear.3 mph64%30.34 "Hg10 mi
Weather by CustomWeather, © 2015

See weather overviewHow to use our weather pages